When you browse on this site, cookies collect data to enhance your experience and personalize the content and advertising you see.
Visit our Privacy Policy to learn more. By continuing to use the site, you agree to this use of cookies and data.
  • Em Portugal
  • Lista de países
  • Para 7 dias
  • Temperatura da água
  • Mapas de satélite
  • Mapa do tempo
  • Widgets de tempo
  • user-avatar
    Iniciar Sessão

    Previsão horária em Sucre

    Hoje, 22 Abril, Segunda-feira

    Tempo Temperatura Precipitação Vento Pressão Humidade
    00:00 +15°C° 0.1 mm 1 m/s 542 mmHg 84%
    01:00 +15°C° 0.1 mm 1 m/s 542 mmHg 84%
    02:00 +14°C° 0 mm 1 m/s 541 mmHg 86%
    03:00 +14°C° 0.1 mm 1 m/s 541 mmHg 86%
    04:00 +14°C° 0.1 mm 1 m/s 541 mmHg 86%
    05:00 +14°C° 0.1 mm 1 m/s 541 mmHg 86%
    06:00 +14°C° 0.1 mm 1 m/s 541 mmHg 83%
    07:00 +15°C° 0.1 mm 1 m/s 542 mmHg 80%
    08:00 +15°C° 0.1 mm 1 m/s 542 mmHg 78%
    09:00 +16°C° 0 mm 2 m/s 543 mmHg 71%
    10:00 +18°C° 0 mm 2 m/s 543 mmHg 64%
    11:00 +19°C° 0 mm 2 m/s 544 mmHg 57%
    12:00 +20°C° 0 mm 3 m/s 544 mmHg 53%
    13:00 +21°C° 0 mm 3 m/s 543 mmHg 49%
    14:00 +22°C° 0 mm 3 m/s 543 mmHg 45%
    15:00 +21°C° 0.1 mm 4 m/s 543 mmHg 48%
    16:00 +21°C° 0.1 mm 4 m/s 542 mmHg 51%
    17:00 +20°C° 0.1 mm 5 m/s 542 mmHg 54%
    18:00 +19°C° 0.1 mm 4 m/s 542 mmHg 60%
    19:00 +18°C° 0.1 mm 3 m/s 542 mmHg 67%
    20:00 +17°C° 0.1 mm 2 m/s 542 mmHg 73%
    21:00 +16°C° 0.3 mm 2 m/s 542 mmHg 75%
    22:00 +16°C° 0.3 mm 2 m/s 542 mmHg 78%
    23:00 +15°C° 0.3 mm 2 m/s 542 mmHg 80%

    Amanhã, 23 Abril, Terça-feira

    Tempo Temperatura Precipitação Vento Pressão Humidade
    00:00 +15°C° 0.4 mm 2 m/s 542 mmHg 81%
    01:00 +15°C° 0.4 mm 2 m/s 542 mmHg 81%
    02:00 +14°C° 0.4 mm 2 m/s 542 mmHg 82%
    03:00 +14°C° 0.4 mm 1 m/s 542 mmHg 83%
    04:00 +14°C° 0.4 mm 1 m/s 542 mmHg 83%
    05:00 +14°C° 0.4 mm 1 m/s 541 mmHg 84%
    06:00 +14°C° 0.4 mm 1 m/s 542 mmHg 83%
    07:00 +14°C° 0.4 mm 1 m/s 542 mmHg 82%
    08:00 +14°C° 0.4 mm 1 m/s 543 mmHg 81%
    09:00 +15°C° 0.3 mm 2 m/s 543 mmHg 76%
    10:00 +16°C° 0.3 mm 2 m/s 544 mmHg 72%
    11:00 +17°C° 0.3 mm 2 m/s 544 mmHg 67%
    12:00 +17°C° 0.5 mm 3 m/s 543 mmHg 65%
    13:00 +17°C° 0.5 mm 3 m/s 543 mmHg 64%
    14:00 +18°C° 0.5 mm 3 m/s 542 mmHg 62%
    15:00 +17°C° 0.1 mm 3 m/s 542 mmHg 63%
    16:00 +17°C° 0.1 mm 3 m/s 542 mmHg 64%
    17:00 +17°C° 0.1 mm 3 m/s 541 mmHg 64%
    18:00 +16°C° 0 mm 2 m/s 542 mmHg 68%
    19:00 +16°C° 0 mm 2 m/s 542 mmHg 72%
    20:00 +15°C° 0 mm 2 m/s 542 mmHg 76%
    21:00 +15°C° 0.2 mm 2 m/s 543 mmHg 77%
    22:00 +14°C° 0.2 mm 2 m/s 543 mmHg 79%
    23:00 +14°C° 0.2 mm 2 m/s 543 mmHg 81%

    Depois de amanhã, 24 Abril, Quarta-feira

    Tempo Temperatura Precipitação Vento Pressão Humidade
    00:00 +14°C° 0.4 mm 2 m/s 543 mmHg 83%
    01:00 +13°C° 0.4 mm 2 m/s 542 mmHg 85%
    02:00 +13°C° 0.4 mm 2 m/s 542 mmHg 86%
    03:00 +13°C° 0.1 mm 2 m/s 542 mmHg 87%
    04:00 +13°C° 0.1 mm 2 m/s 542 mmHg 88%
    05:00 +13°C° 0.1 mm 2 m/s 541 mmHg 89%
    06:00 +13°C° 0.1 mm 2 m/s 542 mmHg 88%
    07:00 +13°C° 0.1 mm 2 m/s 542 mmHg 86%
    08:00 +13°C° 0.1 mm 2 m/s 543 mmHg 85%
    09:00 +14°C° 0.1 mm 2 m/s 543 mmHg 82%
    10:00 +14°C° 0.1 mm 2 m/s 544 mmHg 79%
    11:00 +15°C° 0.1 mm 2 m/s 544 mmHg 75%
    12:00 +16°C° 0.1 mm 2 m/s 544 mmHg 71%
    13:00 +17°C° 0.1 mm 3 m/s 544 mmHg 66%
    14:00 +17°C° 0.1 mm 3 m/s 543 mmHg 62%
    15:00 +17°C° 0.1 mm 3 m/s 543 mmHg 63%
    16:00 +17°C° 0.1 mm 3 m/s 543 mmHg 64%
    17:00 +17°C° 0.1 mm 3 m/s 542 mmHg 65%
    18:00 +16°C° 0.9 mm 3 m/s 542 mmHg 70%
    19:00 +15°C° 0.9 mm 2 m/s 542 mmHg 74%
    20:00 +15°C° 0.9 mm 2 m/s 543 mmHg 79%
    21:00 +14°C° 0.3 mm 2 m/s 543 mmHg 81%
    22:00 +14°C° 0.3 mm 2 m/s 543 mmHg 84%
    23:00 +14°C° 0.3 mm 2 m/s 543 mmHg 87%

    25 Abril, Quinta-feira

    Tempo Temperatura Precipitação Vento Pressão Humidade
    00:00 +14°C° 0.2 mm 2 m/s 543 mmHg 87%
    01:00 +13°C° 0.2 mm 2 m/s 543 mmHg 87%
    02:00 +13°C° 0.2 mm 2 m/s 543 mmHg 87%
    03:00 +13°C° 0.1 mm 2 m/s 542 mmHg 87%
    04:00 +13°C° 0.1 mm 2 m/s 542 mmHg 87%
    05:00 +13°C° 0.1 mm 2 m/s 542 mmHg 88%
    06:00 +13°C° 0.1 mm 2 m/s 543 mmHg 87%
    07:00 +13°C° 0.1 mm 2 m/s 543 mmHg 87%
    08:00 +13°C° 0.1 mm 2 m/s 543 mmHg 86%
    09:00 +14°C° 0.1 mm 2 m/s 544 mmHg 82%
    10:00 +14°C° 0.1 mm 2 m/s 544 mmHg 77%
    11:00 +15°C° 0.1 mm 2 m/s 544 mmHg 73%
    12:00 +16°C° 0.1 mm 3 m/s 544 mmHg 69%
    13:00 +17°C° 0.1 mm 3 m/s 543 mmHg 65%
    14:00 +17°C° 0.1 mm 3 m/s 543 mmHg 61%
    15:00 +17°C° 0 mm 3 m/s 543 mmHg 61%
    16:00 +17°C° 0 mm 3 m/s 543 mmHg 61%
    17:00 +17°C° 0 mm 3 m/s 543 mmHg 61%
    18:00 +16°C° 0 mm 2 m/s 543 mmHg 66%
    19:00 +16°C° 0 mm 2 m/s 543 mmHg 70%
    20:00 +15°C° 0 mm 2 m/s 543 mmHg 75%
    21:00 +14°C° 0.1 mm 2 m/s 543 mmHg 77%
    22:00 +14°C° 0.1 mm 2 m/s 543 mmHg 80%
    23:00 +14°C° 0.1 mm 2 m/s 544 mmHg 83%

    26 Abril, Sexta-feira

    Tempo Temperatura Precipitação Vento Pressão Humidade
    00:00 +14°C° 0.1 mm 2 m/s 543 mmHg 84%
    01:00 +13°C° 0.1 mm 1 m/s 543 mmHg 86%
    02:00 +13°C° 0.1 mm 1 m/s 542 mmHg 88%
    03:00 +13°C° 0.1 mm 1 m/s 542 mmHg 88%
    04:00 +13°C° 0.1 mm 1 m/s 542 mmHg 88%
    05:00 +13°C° 0.1 mm 1 m/s 542 mmHg 88%
    06:00 +13°C° 0 mm 1 m/s 542 mmHg 87%
    07:00 +13°C° 0 mm 2 m/s 543 mmHg 87%
    08:00 +13°C° 0 mm 2 m/s 543 mmHg 86%
    09:00 +14°C° 0.1 mm 2 m/s 543 mmHg 82%
    10:00 +14°C° 0.1 mm 2 m/s 543 mmHg 78%
    11:00 +15°C° 0.1 mm 2 m/s 543 mmHg 73%
    12:00 +16°C° 0 mm 2 m/s 543 mmHg 70%
    13:00 +16°C° 0 mm 3 m/s 542 mmHg 67%
    14:00 +17°C° 0 mm 3 m/s 542 mmHg 63%
    15:00 +17°C° 0 mm 3 m/s 542 mmHg 65%
    16:00 +17°C° 0 mm 3 m/s 541 mmHg 67%
    17:00 +16°C° 0 mm 3 m/s 541 mmHg 69%
    18:00 +16°C° 0.2 mm 2 m/s 541 mmHg 73%
    19:00 +15°C° 0.2 mm 2 m/s 541 mmHg 77%
    20:00 +14°C° 0.2 mm 1 m/s 541 mmHg 81%
    21:00 +14°C° 0 mm 1 m/s 541 mmHg 83%
    22:00 +13°C° 0 mm 1 m/s 541 mmHg 84%
    23:00 +13°C° 0 mm 1 m/s 541 mmHg 85%

    27 Abril, Sábado

    Tempo Temperatura Precipitação Vento Pressão Humidade
    00:00 +13°C° 0 mm 1 m/s 541 mmHg 86%
    01:00 +13°C° 0 mm 1 m/s 541 mmHg 86%
    02:00 +13°C° 0 mm 1 m/s 541 mmHg 86%
    03:00 +12°C° 0 mm 1 m/s 541 mmHg 87%
    04:00 +12°C° 0 mm 1 m/s 540 mmHg 88%
    05:00 +12°C° 0 mm 1 m/s 540 mmHg 90%
    06:00 +12°C° 0 mm 1 m/s 541 mmHg 88%
    07:00 +13°C° 0 mm 1 m/s 542 mmHg 86%
    08:00 +13°C° 0 mm 1 m/s 542 mmHg 84%
    09:00 +14°C° 0 mm 2 m/s 543 mmHg 78%
    10:00 +15°C° 0 mm 2 m/s 543 mmHg 72%
    11:00 +16°C° 0 mm 2 m/s 543 mmHg 66%
    12:00 +17°C° 0 mm 2 m/s 543 mmHg 63%
    13:00 +18°C° 0 mm 3 m/s 543 mmHg 59%
    14:00 +19°C° 0 mm 3 m/s 542 mmHg 55%
    15:00 +18°C° 0.1 mm 3 m/s 542 mmHg 58%
    16:00 +18°C° 0.1 mm 3 m/s 542 mmHg 60%
    17:00 +18°C° 0.1 mm 3 m/s 542 mmHg 63%
    18:00 +17°C° 0.1 mm 3 m/s 542 mmHg 68%
    19:00 +16°C° 0.1 mm 2 m/s 542 mmHg 74%
    20:00 +15°C° 0.1 mm 2 m/s 542 mmHg 80%
    21:00 +15°C° 0.2 mm 2 m/s 543 mmHg 82%
    22:00 +14°C° 0.2 mm 2 m/s 543 mmHg 84%
    23:00 +14°C° 0.2 mm 2 m/s 543 mmHg 86%
    Mostrar mais